Weather History for Newburgh, NY

Change the Weather History Date:

Friday, February 8, 2013

  Actual Average Record
Temperature  
Mean Temperature 28 °F -  
Max Temperature 30 °F 35 °F 24 °F (2014)
Min Temperature 24 °F 18 °F 10 °F (2014)
Degree Days  
Heating Degree Days 37    
Moisture  
Dew Point 26 °F    
Average Humidity 88    
Maximum Humidity 93    
Minimum Humidity 69    
Precipitation  
Precipitation 0.00 in - - ()
Sea Level Pressure  
Sea Level Pressure 30.01 in    
Wind  
Wind Speed 11 mph (ENE)    
Max Wind Speed 17 mph    
Max Gust Speed 29 mph    
Visibility 4 miles    
Events Snow    
Averages and records for this station are not official NWS values.
T = Trace of Precipitation, MM = Missing Value Source: NWS Daily Summary

Daily Weather History Graph

Daily Weather History Graph

Search for Another Location

Airport:

Trip Planner

Search our weather history database for the weather conditions in past years. The results will help you decide how hot, cold, wet, or windy it might be!

Date:

Astronomy

Feb. 08, 2013 Rise Set
Actual Time 7:00 AM EST 5:21 PM EST
Civil Twilight 6:31 AM EST 5:50 PM EST
Nautical Twilight 5:58 AM EST 6:23 PM EST
Astronomical Twilight 5:26 AM EST 6:55 PM EST
Moon 5:27 AM EST (2/8) 3:51 PM EST (2/8)
Length of Visible Light 11h 19m
Length of Day
10h 21m
Waning Crescent, 3% of the Moon is Illuminated
Feb 8
Waning Crescent
Feb 10
New
Feb 17
First Quarter
Feb 25
Full
Mar 4
Last Quarter

Hourly Weather History & Observations

Time (EST) Temp. Windchill Dew Point Humidity Pressure Visibility Wind Dir Wind Speed Gust Speed Precip Events Conditions
12:45 AM 28.4 °F 21.2 °F 19.4 °F 69% 30.32 in 15.0 mi East 6.9 mph - N/A   Overcast
1:50 AM 28.4 °F 22.2 °F 21.2 °F 74% 30.29 in 15.0 mi East 5.8 mph - N/A   Overcast
3:45 AM 28.4 °F 17.5 °F 23.0 °F 80% 30.24 in 10.0 mi ESE 13.8 mph 21.9 mph N/A   Overcast
4:50 AM 28.4 °F 17.5 °F 23.0 °F 80% 30.22 in 10.0 mi ESE 13.8 mph - N/A   Overcast
5:55 AM 28.4 °F 19.7 °F 24.8 °F 86% 30.19 in 5.0 mi East 9.2 mph - N/A Snow Light Snow
6:45 AM 26.6 °F 15.7 °F 24.8 °F 93% 30.17 in 4.0 mi East 12.7 mph - N/A Snow Light Snow
7:45 AM 28.4 °F 19.7 °F 24.8 °F 86% 30.15 in 10.0 mi ENE 9.2 mph - N/A   Overcast
8:45 AM 28.4 °F 21.2 °F 26.6 °F 93% 30.13 in 2.0 mi ENE 6.9 mph - N/A Snow Light Snow
9:45 AM 30.2 °F 21.9 °F 26.6 °F 86% 30.10 in 5.0 mi East 9.2 mph - N/A Snow Light Snow
10:45 AM 30.2 °F 21.3 °F 28.4 °F 93% 30.06 in 1.0 mi ENE 10.4 mph - N/A Snow Light Snow
11:45 AM 30.2 °F 21.3 °F 28.4 °F 93% 30.00 in 1.0 mi ENE 10.4 mph - N/A Snow Snow
12:45 PM 30.2 °F 19.3 °F 28.4 °F 93% 29.96 in 1.0 mi East 15.0 mph 23.0 mph N/A Snow Snow
1:45 PM 30.2 °F 19.8 °F 28.4 °F 93% 29.89 in 1.0 mi NE 13.8 mph 25.3 mph N/A Snow Snow
2:45 PM 30.2 °F 19.8 °F 28.4 °F 93% 29.85 in 1.0 mi NE 13.8 mph 25.3 mph N/A Snow Snow
3:45 PM 30.2 °F 20.8 °F 28.4 °F 93% 29.80 in 0.5 mi NE 11.5 mph 17.3 mph N/A Snow Snow
4:45 PM 30.2 °F 18.5 °F 28.4 °F 93% 29.78 in 0.5 mi NE 17.3 mph 28.8 mph N/A Snow Snow
5:45 PM 30.2 °F 18.9 °F 28.4 °F 93% 29.77 in 0.4 mi NE 16.1 mph 26.5 mph N/A   Unknown
6:55 PM 28.4 °F 16.2 °F 26.6 °F 93% 29.74 in 0.8 mi NE 17.3 mph 28.8 mph N/A Snow Light Snow
8:45 PM 26.6 °F 13.8 °F 24.8 °F 93% 29.71 in 0.5 mi NNE 17.3 mph 28.8 mph N/A Snow Snow
9:45 PM 24.8 °F 11.5 °F 23.0 °F 93% 29.73 in 0.2 mi North 17.3 mph 28.8 mph N/A Snow Snow